This demonstration page uses our WeatherBlox Daily Observations layout. Learn more.

Left ArrowRight Arrow

39.51506, -84.39828

Hourly Observations for September 11, 2021

Temp ( °F °C ) Dew Point ( °F °C ) Humidity (%) Winds ( mph kmh ) Pressure ( in mb ) Visibility ( mi km ) Precip ( " mm )
12:15 am 00:15 Clear 55 13 N/A N/A N N/A 30.15 1021 10 16 N/A
12:35 am 00:35 Clear 55 13 N/A N/A N N/A 30.14 1021 10 16 N/A
12:55 am 00:55 Clear 55 13 N/A N/A N N/A 30.14 1021 10 16 N/A
1:15 am 01:15 Clear 55 13 N/A N/A N N/A 30.15 1021 10 16 N/A
1:35 am 01:35 Clear 54 12 N/A N/A N N/A 30.14 1021 10 16 N/A
1:55 am 01:55 Clear 54 12 N/A N/A N N/A 30.14 1021 10 16 N/A
2:15 am 02:15 Clear 54 12 N/A N/A N N/A 30.14 1021 10 16 N/A
2:35 am 02:35 Clear 54 12 N/A N/A N N/A 30.13 1020 10 16 N/A
2:55 am 02:55 Partly Cloudy 54 12 N/A N/A N N/A 30.13 1020 10 16 N/A
3:15 am 03:15 Partly Cloudy with Mist and Fog 54 12 N/A N/A N N/A 30.13 1020 1 2 N/A
3:35 am 03:35 Clear 54 12 N/A N/A N N/A 30.13 1020 10 16 N/A
3:55 am 03:55 Clear 54 12 N/A N/A N N/A 30.13 1020 10 16 N/A
4:15 am 04:15 Clear 54 12 N/A N/A N N/A 30.13 1020 7 11 N/A
4:35 am 04:35 Clear 52 11 N/A N/A N N/A 30.15 1021 10 16 N/A
4:55 am 04:55 Clear 52 11 N/A N/A N N/A 30.16 1021 10 16 N/A
5:15 am 05:15 Clear 54 12 N/A N/A N N/A 30.15 1021 10 16 N/A
5:35 am 05:35 Clear 52 11 N/A N/A N N/A 30.16 1021 10 16 N/A
5:55 am 05:55 Clear 52 11 N/A N/A N N/A 30.16 1021 10 16 N/A
6:15 am 06:15 Clear 52 11 N/A N/A N N/A 30.16 1021 10 16 N/A
6:35 am 06:35 Clear 52 11 N/A N/A N N/A 30.17 1022 10 16 N/A
6:55 am 06:55 Mostly Cloudy with Mist and Fog 52 11 N/A N/A N N/A 30.17 1022 1 2 N/A
7:15 am 07:15 Mostly Cloudy with Mist and Fog 52 11 N/A N/A N N/A 30.17 1022 2 2 N/A
7:35 am 07:35 Mostly Cloudy with Mist and Fog 52 11 N/A N/A NNW 3 6 30.17 1022 1 2 N/A
7:55 am 07:55 Sunny 52 11 N/A N/A N N/A 30.17 1022 10 16 N/A
8:15 am 08:15 Sunny 54 12 N/A N/A N N/A 30.16 1021 10 16 N/A
8:35 am 08:35 Sunny 57 14 N/A N/A W 3 6 30.17 1022 10 16 N/A
8:55 am 08:55 Mostly Cloudy 60 15.7 60 15.3 97 97 SW 3 6 30.16 1021 10 16 N/A
9:15 am 09:15 Partly Cloudy 62 16.8 59 15.1 90 90 N N/A 30.16 1021 10 16 N/A
9:35 am 09:35 Mostly Cloudy 65 18.5 59 14.9 80 80 S 6 9 30.16 1021 10 16 N/A
9:55 am 09:55 Cloudy 66 18.9 61 15.9 83 83 SW 6 9 30.16 1021 10 16 N/A
10:35 am 10:35 Cloudy 69 20.5 58 14.7 70 70 SSW 12 19 30.14 1021 10 16 N/A
10:55 am 10:55 Mostly Cloudy 71 21.9 59 15.1 65 65 S 12 19 30.13 1020 10 16 N/A
11:15 am 11:15 Mostly Cloudy 73 22.7 59 15.2 63 63 S 12 19 30.13 1020 10 16 N/A
11:35 am 11:35 Mostly Cloudy 74 23.1 59 14.8 60 60 S 12 19 30.12 1020 10 16 N/A
11:55 am 11:55 Cloudy 74 23.3 58 14.7 59 59 SSW 15 24 30.12 1020 10 16 N/A
12:15 pm 12:15 Mostly Cloudy 74 23.6 58 14.6 57 57 S 13 20 30.12 1020 10 16 N/A
12:35 pm 12:35 Partly Cloudy 78 25.7 59 14.8 51 51 SSW 17 28 30.10 1019 10 16 N/A
12:55 pm 12:55 Partly Cloudy 79 26.2 59 14.9 50 50 S 17 28 30.09 1019 10 16 N/A
1:15 pm 13:15 Partly Cloudy 79 26.2 59 14.8 50 50 S 17 28 30.09 1019 10 16 N/A
1:35 pm 13:35 Mostly Cloudy 79 26 59 15 51 51 SSW 16 26 30.08 1019 10 16 N/A
1:55 pm 13:55 Mostly Cloudy 80 26.5 59 15.2 50 50 S 22 35 30.07 1018 10 16 N/A
2:15 pm 14:15 Partly Cloudy 80 26.6 60 15.4 50 50 SSW 20 31 30.07 1018 10 16 N/A
2:35 pm 14:35 Cloudy 79 26.2 60 15.4 51 51 SSW 18 30 30.07 1018 10 16 N/A
2:55 pm 14:55 Mostly Cloudy 80 26.6 60 15.8 52 52 SSW 18 30 30.06 1018 10 16 N/A
3:15 pm 15:15 Mostly Cloudy 80 26.8 60 15.7 51 51 S 18 30 30.05 1018 10 16 N/A
3:35 pm 15:35 Mostly Cloudy 80 26.5 60 15.6 51 51 SSW 18 30 30.04 1017 10 16 N/A
3:55 pm 15:55 Cloudy 81 27.3 61 15.9 50 50 SW 16 26 30.03 1017 10 16 N/A
4:15 pm 16:15 Mostly Cloudy 82 27.7 61 16.3 50 50 SW 18 30 30.03 1017 10 16 N/A
4:35 pm 16:35 Partly Cloudy 82 27.6 61 16.3 50 50 SSW 20 31 30.02 1016 10 16 N/A
4:55 pm 16:55 Sunny 82 27.6 61 16.3 50 50 SSW 17 28 30.02 1016 10 16 N/A
5:15 pm 17:15 Sunny 82 27.5 62 16.5 51 51 SSW 16 26 30.02 1017 10 16 N/A
5:35 pm 17:35 Sunny 81 27.4 62 16.4 51 51 SSW 17 28 30.02 1017 10 16 N/A
5:55 pm 17:55 Sunny 81 27.2 62 16.6 52 52 SW 18 30 30.02 1017 10 16 N/A
6:15 pm 18:15 Sunny 80 26.9 62 16.6 53 53 SSW 16 26 30.02 1017 10 16 N/A
6:35 pm 18:35 Sunny 80 26.5 63 17.2 57 57 SSW 12 19 30.02 1017 10 16 N/A
6:55 pm 18:55 Sunny 79 26.1 63 17.1 58 58 SSW 13 20 30.02 1017 10 16 N/A
7:15 pm 19:15 Sunny 78 25.8 63 17.1 59 59 SSW 12 19 30.02 1017 10 16 N/A
7:35 pm 19:35 Sunny 78 25.4 62 16.9 59 59 SSW 14 22 30.02 1017 10 16 N/A
7:55 pm 19:55 Clear 77 24.8 63 17 62 62 SSW 12 19 30.02 1017 10 16 N/A
8:15 pm 20:15 Clear 76 24.4 63 17 63 63 SSW 12 19 30.02 1017 10 16 N/A
8:35 pm 20:35 Clear 75 24.1 63 17 65 65 SSW 12 19 30.04 1017 10 16 N/A
8:55 pm 20:55 Clear 75 23.9 63 17.1 66 66 SSW 12 19 30.05 1017 10 16 N/A
9:15 pm 21:15 Clear 74 23.6 63 17.2 67 67 SSW 12 19 30.06 1018 10 16 N/A
9:35 pm 21:35 Clear 74 23.4 63 17.2 68 68 SSW 10 17 30.06 1018 10 16 N/A
9:55 pm 21:55 Clear 74 23.2 63 17.2 69 69 SSW 10 17 30.06 1018 10 16 N/A
10:15 pm 22:15 Clear 73 22.9 63 17.4 71 71 SSW 9 15 30.07 1018 10 16 N/A
10:35 pm 22:35 Clear 72 22.4 64 17.7 75 75 SSW 9 15 30.07 1018 10 16 N/A
10:55 pm 22:55 Clear 73 22.7 64 17.7 73 73 SSW 9 15 30.07 1018 10 16 N/A
11:15 pm 23:15 Clear 73 22.8 64 17.6 73 73 SSW 10 17 30.07 1018 10 16 N/A
11:35 pm 23:35 Clear 73 22.7 64 17.6 73 73 SSW 10 17 30.07 1018 10 16 N/A
11:55 pm 23:55 Clear 73 22.5 64 17.6 74 74 SSW 12 19 30.07 1018 10 16 N/A

Powered by AerisWeather